Temperature
11 10 10 11 12 12 12 12 12 13 14 13 13 13 14 15 14 14 16 17 18 19 20 20 20 19 19 19 18 18 17 16 15 14 13 13 13 13 12 12 12 11 11 11
9 10 11 12 12 12 12 12 12 13 14 14 13 13 13 13 13 15 16 17 19 19 20 20 20 20 19 19 18 18 18 17 16 15 15 14 14 13 13 12 12 11 11 11
10 11 12 12 12 12 12 12 12 13 13 13 13 13 13 13 14 15 17 18 19 19 20 20 20 20 19 19 19 19 18 18 17 16 15 13 12 12 11 12 12 12 11 11
10 11 11 11 11 12 12 12 13 13 12 11 13 11 12 13 13 13 14 17 18 19 20 20 20 20 20 20 19 19 19 18 17 16 15 14 13 13 13 13 13 12 11 11
10 10 11 11 11 12 12 12 13 12 12 11 11 11 11 12 13 14 14 16 18 19 20 20 20 20 20 20 19 19 19 18 17 16 16 15 14 14 13 13 12 12 11 11
10 10 11 11 12 12 12 12 11 10 10 10 11 10 11 11 13 14 14 16 18 19 20 20 20 20 20 19 19 19 18 18 17 16 16 15 15 14 13 13 12 12 11 11
9 10 11 11 11 11 12 11 10 10 10 10 10 10 11 12 13 14 15 17 18 19 19 19 20 19 19 19 19 19 18 18 17 16 16 15 15 14 14 13 13 12 12 11
8 9 10 11 11 10 11 11 10 11 10 10 9 10 11 12 13 14 15 16 17 18 19 19 19 19 19 19 19 18 18 18 17 16 16 15 14 14 13 13 13 12 12 12
8 9 10 10 11 11 11 11 11 10 10 10 9 9 10 11 12 12 13 15 16 18 19 19 19 19 19 19 18 18 18 18 17 16 15 15 14 14 13 13 13 12 12 12
7 8 9 10 11 11 11 11 10 10 10 10 10 10 11 13 13 13 13 13 16 18 18 19 19 19 19 18 18 18 17 17 17 16 15 15 14 14 13 13 12 12 12 11
7 7 8 9 10 10 10 10 10 10 9 10 10 11 11 13 14 14 13 15 17 18 19 19 18 18 18 18 18 17 17 16 16 15 15 14 14 13 13 13 12 12 12 11
7 7 7 8 10 11 10 10 10 10 9 9 9 11 13 12 13 13 13 15 17 18 18 18 18 18 18 17 17 17 17 16 16 15 14 14 14 13 13 12 12 12 11 11
5 6 7 8 9 9 10 9 10 10 8 8 9 11 12 11 12 12 14 15 16 17 17 18 18 17 17 17 17 17 16 16 15 15 14 14 13 13 12 12 12 11 11 11
6 5 6 7 8 7 8 9 10 10 10 9 9 11 13 13 13 13 13 15 16 17 17 17 18 17 17 17 17 16 16 15 15 14 14 13 13 12 12 12 11 11 11 10
4 4 5 6 7 8 8 9 9 10 10 10 10 11 12 13 13 13 14 15 15 16 17 17 18 18 17 17 17 16 16 15 15 14 14 13 13 12 11 11 11 11 10 10
3 4 5 6 7 8 8 9 9 10 11 11 10 11 12 12 13 13 14 15 15 16 17 17 18 18 17 17 17 16 16 15 14 14 13 13 12 12 11 11 10 10 10 10
3 4 4 5 6 7 8 9 10 10 10 11 11 12 11 11 11 12 14 15 16 17 18 18 18 18 18 17 17 16 16 15 14 14 13 13 12 11 11 10 10 10 9 9
3 3 4 4 5 6 8 9 10 10 10 11 11 11 11 12 13 15 16 16 17 18 18 18 18 18 17 17 17 16 15 15 14 13 13 12 11 11 10 10 10 9 9 9
3 4 3 4 5 6 7 8 9 9 10 11 11 11 11 12 12 13 16 16 17 17 18 18 18 17 17 17 16 16 15 15 14 13 13 12 11 11 10 10 9 9 8 8
4 4 4 4 5 6 8 8 9 10 9 10 11 11 10 10 10 13 15 16 16 17 17 17 17 17 17 16 16 15 15 14 14 13 12 12 11 10 10 9 9 8 8 8
3 3 3 4 4 6 8 8 9 9 10 10 10 11 10 10 13 14 15 15 16 16 16 16 16 16 16 16 15 15 15 14 13 13 12 11 11 10 9 9 8 8 8 7
4 4 4 4 4 6 7 7 9 9 10 11 11 11 11 12 13 13 14 15 15 15 16 16 16 16 15 15 15 15 14 14 13 12 11 11 10 10 9 8 8 8 7 7
4 4 4 5 6 7 7 8 9 10 10 11 11 12 12 11 11 12 13 14 15 15 15 15 15 15 15 14 14 14 14 13 12 12 11 10 9 9 8 8 8 7 7 6
3 4 4 4 5 6 7 8 9 9 10 11 11 12 12 11 12 12 13 13 14 14 14 14 14 14 14 14 14 13 13 12 12 11 10 9 9 8 8 7 7 6 6 5
3 3 3 4 5 5 7 8 9 9 9 10 10 11 12 12 11 12 12 13 13 13 13 14 14 14 13 13 13 12 12 11 11 10 10 9 8 8 7 7 6 6 5 5
2 3 3 4 5 5 6 8 8 9 9 9 10 10 11 11 12 12 12 12 12 12 13 13 13 13 13 12 12 12 11 11 10 10 9 8 8 7 6 6 5 5 4 4
Wind_Speed
8 9 16 18 17 8 8 8 8 7 5 8 11 13 14 10 8 10 11 11 12 14 13 11 11 12 12 13 15 17 18 17 15 14 13 12 12 11 10 11 15 17 17 17
8 18 17 12 12 10 8 9 7 4 3 6 7 12 12 11 10 11 12 13 14 13 10 9 9 10 14 16 17 18 18 18 18 16 15 11 9 8 8 7 12 16 17 17
20 10 13 13 13 15 14 12 10 6 1 1 3 9 9 9 8 9 10 12 12 14 14 11 10 12 13 15 18 17 19 19 19 16 10 8 6 5 6 9 10 12 16 17
16 11 13 15 17 16 17 11 9 6 3 4 2 6 8 8 9 10 13 12 13 13 12 11 10 10 13 16 15 16 17 17 17 16 15 16 13 12 12 10 10 10 14 15
13 13 16 20 19 16 8 9 9 7 5 5 4 6 9 6 10 12 13 13 13 12 12 11 11 12 12 12 13 14 14 15 16 17 18 18 14 11 8 7 10 10 10 12
10 8 13 13 12 13 7 6 3 2 3 11 12 9 9 8 11 10 10 11 11 10 9 9 8 7 8 8 10 11 13 15 16 18 18 18 17 13 11 10 11 10 8 9
10 9 9 7 9 11 11 8 5 6 8 11 8 10 11 10 11 12 12 11 10 8 8 7 7 8 8 10 11 11 14 14 15 17 18 18 17 16 16 14 13 11 9 8
13 12 13 10 12 11 16 14 10 9 8 6 6 11 10 10 9 9 10 9 8 8 8 8 8 8 9 10 11 12 14 13 15 16 17 15 14 13 11 12 11 13 11 11
11 10 8 10 8 13 13 14 9 5 3 4 7 7 9 7 8 9 10 9 10 10 9 9 7 7 8 9 10 12 13 13 14 15 14 13 14 13 12 12 11 10 9 9
5 6 6 7 6 9 10 11 7 8 8 7 6 7 7 7 11 11 11 11 12 9 8 8 7 7 7 7 7 8 10 12 11 13 13 12 13 13 12 11 12 11 10 10
3 5 5 7 12 14 9 11 8 8 6 8 6 8 9 12 13 13 14 12 11 10 10 8 6 5 5 5 6 7 8 9 10 11 11 11 11 11 11 11 12 11 10 11
3 4 6 9 6 9 9 12 11 10 8 7 5 8 7 10 9 9 10 10 8 9 7 6 5 5 5 6 7 8 8 9 9 10 10 11 10 10 11 11 11 11 11 11
1 3 4 4 4 6 8 9 12 9 5 6 7 8 4 5 6 8 9 8 7 7 6 5 4 5 6 6 6 7 8 8 8 9 10 10 10 11 11 11 10 10 10 10
2 3 7 10 6 6 9 11 13 11 10 10 12 10 6 5 6 6 6 6 6 6 6 6 6 6 6 6 6 7 7 7 8 9 10 10 10 10 10 10 9 10 10 10
0 4 5 8 7 7 10 15 15 18 17 15 16 16 13 10 8 7 5 4 5 5 6 8 8 7 6 6 6 7 7 7 8 9 10 10 9 9 9 9 9 9 9 9
3 4 5 7 7 8 10 16 20 21 20 18 14 18 12 9 6 5 7 7 7 8 9 9 8 8 8 9 8 8 8 8 8 9 9 8 8 8 9 8 8 8 8 7
4 4 3 5 5 4 13 18 20 18 19 21 23 21 6 9 12 13 11 10 11 11 10 10 10 10 10 10 9 10 9 8 9 9 8 8 9 9 8 8 8 8 8 7
8 6 3 3 2 9 9 8 13 18 19 18 17 11 11 12 13 12 11 12 12 11 10 10 9 9 8 7 7 8 8 9 9 9 8 8 9 9 8 8 8 7 6 7
13 9 5 4 5 8 9 6 11 15 19 18 18 14 9 5 4 9 10 11 13 13 11 10 9 8 7 8 9 10 9 9 9 9 9 9 9 9 9 8 8 6 6 6
13 11 6 5 5 9 8 4 4 8 15 13 15 15 10 8 9 16 10 11 12 10 8 7 7 6 8 8 10 11 10 10 10 10 9 9 9 9 9 8 7 5 6 5
9 9 12 8 7 9 8 4 6 10 10 6 11 13 12 16 19 12 7 10 10 9 8 7 8 8 8 10 11 11 10 10 9 8 8 8 8 8 8 7 6 6 6 6
8 8 10 9 8 11 4 4 8 6 5 5 7 10 11 15 14 8 8 9 9 8 7 8 8 7 7 10 12 11 10 8 9 9 9 8 7 7 7 8 7 6 7 6
7 7 5 9 10 6 3 5 6 4 5 5 5 7 8 9 9 8 8 8 8 8 8 7 9 9 7 8 11 12 9 10 11 10 9 8 8 7 7 8 8 6 5 5
5 4 5 7 9 10 10 9 8 6 6 8 7 6 6 7 7 7 7 7 7 8 8 8 10 10 8 7 8 9 11 11 12 11 9 8 8 7 6 6 6 6 5 5
7 5 6 10 10 10 11 10 9 9 8 8 7 6 6 6 6 6 6 7 8 7 7 9 11 11 10 9 9 9 11 12 12 11 9 8 7 8 6 5 4 5 4 5
9 9 10 10 8 7 11 12 10 10 10 9 7 7 6 5 6 5 5 6 7 8 8 9 9 10 10 10 10 9 10 12 13 11 9 7 7 6 6 6 5 5 4 5
Wind_Direction
185 191 205 202 202 195 179 183 205 219 203 185 221 242 252 252 233 239 242 240 237 237 239 229 214 206 198 195 194 195 196 195 189 191 192 194 199 198 198 198 196 194 195 193
191 218 214 196 197 202 198 202 212 241 207 201 239 253 253 244 233 229 232 235 236 238 244 232 215 200 199 199 198 196 197 194 192 195 195 196 191 194 196 190 194 196 196 194
208 211 191 194 201 205 212 208 204 208 315 275 282 282 259 254 234 238 234 234 234 231 235 232 217 208 203 202 200 198 198 195 195 190 181 169 157 155 179 193 197 198 197 196
217 213 191 198 208 200 222 206 191 196 210 261 217 273 268 250 257 246 242 238 237 236 234 230 219 211 206 206 200 198 196 195 193 184 183 182 189 196 198 193 195 192 195 195
213 195 196 207 208 195 204 179 187 198 213 263 236 248 269 250 251 249 241 238 237 234 229 226 219 212 207 200 194 195 191 192 189 187 189 190 196 198 183 174 183 190 192 194
222 205 198 207 203 190 159 126 124 149 196 246 226 219 264 223 222 237 237 235 235 233 226 225 217 200 195 188 186 185 186 190 188 189 190 194 195 185 175 180 188 191 191 193
216 218 209 183 173 180 172 155 175 197 211 237 196 212 246 227 219 221 232 240 237 228 221 220 210 197 191 186 186 184 186 190 188 189 193 196 195 189 189 188 191 189 189 195
202 210 199 190 190 182 189 182 187 193 205 232 190 225 246 236 235 236 239 242 237 227 221 221 215 202 197 191 186 184 188 190 187 190 195 196 193 193 196 191 189 192 197 198
200 219 192 196 181 166 180 199 190 169 166 210 231 257 289 253 248 242 239 235 232 226 221 219 213 201 194 190 189 188 188 188 188 191 191 192 192 193 194 191 189 192 192 187
182 212 208 186 156 189 179 164 166 187 185 221 247 238 232 225 223 226 227 227 229 222 218 213 208 202 195 191 187 185 187 189 187 187 189 192 193 194 192 187 190 191 188 181
197 189 194 182 189 186 170 182 181 180 190 188 225 249 217 208 208 213 221 223 218 212 211 209 206 198 183 172 172 178 181 180 182 185 187 187 190 190 187 190 193 191 186 183
213 194 209 214 221 190 181 185 181 190 206 193 201 257 244 217 225 221 229 227 218 212 206 198 192 178 174 177 177 179 179 181 183 181 182 187 186 184 188 193 191 187 185 185
294 203 197 205 214 192 199 193 194 189 171 183 198 250 260 215 231 230 230 226 214 201 192 189 185 186 189 187 183 182 181 181 176 174 178 181 183 186 191 192 186 183 183 181
310 232 218 216 212 190 209 212 202 193 207 214 220 230 246 232 229 231 224 216 204 200 195 194 199 202 199 192 186 184 183 177 171 172 177 184 187 187 188 186 181 181 180 179
221 254 258 266 259 210 225 218 212 214 213 214 225 226 228 231 228 228 218 200 197 210 209 206 205 205 199 194 188 184 182 175 170 172 180 186 180 176 176 176 175 174 175 178
186 247 279 269 254 239 241 225 217 221 220 225 231 238 228 226 222 225 216 205 212 219 219 216 209 204 202 198 191 184 181 176 169 174 180 174 168 169 171 171 167 166 169 170
201 206 243 264 285 270 239 219 212 218 221 218 227 234 198 208 216 220 217 212 218 223 217 212 210 207 205 197 187 184 177 165 167 173 171 167 167 169 170 164 162 167 169 165
212 204 220 247 249 228 239 213 212 224 229 221 229 229 202 215 223 222 209 207 218 222 218 217 210 206 199 184 174 164 156 161 167 169 168 166 164 165 161 159 164 166 163 165
211 201 202 206 234 263 278 233 200 211 233 225 230 235 222 210 231 246 223 210 216 217 214 213 204 195 180 173 164 152 154 157 163 171 172 169 164 161 159 163 166 162 158 161
203 198 201 205 219 235 246 237 213 196 244 233 224 231 217 169 225 245 219 210 219 217 208 198 181 167 169 167 153 151 157 161 173 176 170 162 159 159 162 164 158 152 153 155
185 195 207 213 229 254 258 247 148 188 240 241 216 225 213 207 228 242 202 205 208 207 201 182 167 169 172 159 151 153 158 174 173 155 147 148 151 153 152 146 144 142 138 134
193 194 201 204 222 243 240 161 183 230 273 253 220 220 221 230 238 232 207 202 195 192 184 168 161 162 155 154 152 154 166 161 143 138 138 141 142 140 137 135 134 135 138 138
208 207 208 210 227 261 233 229 249 263 270 268 251 251 231 234 236 228 215 200 191 182 173 162 155 148 148 156 157 158 159 144 137 134 136 135 130 129 135 139 140 138 140 144
243 224 228 250 255 269 273 275 283 286 278 279 270 258 233 234 235 227 211 197 185 175 167 156 148 147 153 155 152 149 143 140 136 136 136 135 133 129 125 129 139 145 153 153
239 224 237 252 265 276 270 263 271 285 293 296 290 271 241 228 239 218 205 193 180 169 158 154 155 154 154 146 140 140 141 138 134 134 134 133 132 134 128 120 129 143 160 168
227 223 230 247 246 251 269 272 274 275 276 276 280 286 276 231 221 205 192 181 166 157 149 145 144 144 144 141 139 140 141 140 137 136 137 137 135 132 131 125 100 85 109 123
Height
1446 1450 1449 1449 1452 1455 1459 1463 1464 1462 1459 1462 1464 1462 1457 1455 1456 1456 1456 1456 1457 1458 1461 1464 1467 1469 1472 1475 1478 1481 1485 1488 1492 1496 1499 1503 1506 1510 1513 1517 1520 1524 1527 1530
1444 1442 1439 1444 1449 1453 1456 1460 1462 1460 1457 1459 1461 1459 1452 1450 1449 1448 1448 1449 1450 1452 1454 1457 1460 1462 1465 1468 1471 1474 1477 1482 1485 1489 1492 1496 1501 1505 1509 1512 1516 1520 1523 1526
1432 1431 1436 1442 1446 1450 1452 1456 1459 1460 1458 1457 1459 1457 1450 1443 1442 1441 1441 1441 1443 1444 1446 1449 1452 1455 1457 1460 1463 1467 1471 1475 1479 1483 1488 1492 1497 1500 1504 1507 1510 1514 1518 1522
1427 1428 1431 1436 1440 1444 1447 1448 1453 1457 1462 1465 1462 1467 1450 1442 1439 1436 1434 1434 1435 1437 1439 1442 1444 1447 1450 1453 1457 1461 1465 1468 1472 1477 1481 1484 1488 1491 1495 1500 1505 1510 1513 1517
1420 1421 1426 1428 1431 1437 1441 1443 1450 1454 1460 1466 1463 1466 1450 1440 1437 1430 1427 1426 1427 1430 1432 1434 1437 1440 1443 1447 1451 1454 1458 1462 1466 1470 1474 1478 1482 1486 1491 1496 1500 1505 1508 1512
1415 1416 1418 1421 1426 1432 1437 1445 1452 1458 1463 1466 1457 1464 1448 1437 1428 1423 1421 1420 1421 1423 1426 1428 1431 1434 1437 1441 1445 1448 1452 1456 1460 1464 1468 1472 1476 1481 1485 1490 1494 1499 1503 1506
1414 1413 1413 1416 1424 1429 1433 1445 1456 1459 1461 1455 1450 1452 1435 1422 1417 1415 1415 1415 1416 1418 1421 1423 1426 1429 1432 1435 1439 1443 1447 1450 1454 1458 1462 1467 1471 1476 1480 1484 1489 1493 1497 1500
1411 1410 1408 1409 1413 1420 1425 1433 1443 1449 1451 1451 1449 1443 1425 1412 1409 1408 1409 1410 1411 1414 1416 1419 1421 1424 1427 1430 1434 1438 1441 1445 1449 1453 1457 1462 1466 1471 1475 1479 1484 1488 1491 1495
1406 1404 1401 1402 1404 1411 1421 1426 1428 1438 1443 1446 1443 1434 1420 1408 1406 1405 1405 1405 1406 1408 1412 1414 1417 1420 1423 1426 1430 1433 1437 1440 1444 1448 1452 1457 1461 1465 1470 1474 1479 1483 1486 1490
1402 1405 1400 1399 1402 1404 1409 1417 1427 1435 1440 1441 1435 1431 1419 1405 1402 1400 1401 1400 1400 1404 1407 1410 1414 1417 1420 1423 1426 1429 1432 1436 1439 1443 1447 1451 1456 1460 1465 1469 1473 1477 1481 1485
1400 1402 1401 1398 1396 1400 1408 1413 1416 1424 1429 1432 1432 1420 1399 1394 1392 1393 1393 1393 1396 1400 1403 1407 1410 1414 1417 1420 1422 1425 1429 1432 1435 1439 1443 1447 1451 1455 1459 1464 1468 1472 1476 1479
1399 1400 1400 1395 1390 1390 1395 1400 1409 1416 1422 1422 1423 1411 1386 1387 1386 1388 1389 1390 1393 1396 1400 1404 1407 1410 1413 1416 1419 1422 1425 1428 1432 1435 1439 1442 1446 1450 1454 1458 1463 1467 1470 1474
1400 1399 1399 1396 1396 1394 1394 1396 1399 1405 1415 1420 1418 1405 1384 1384 1384 1385 1386 1388 1390 1394 1397 1401 1404 1407 1410 1413 1416 1419 1422 1425 1428 1432 1435 1438 1442 1446 1449 1454 1458 1462 1465 1468
1399 1398 1395 1391 1385 1391 1393 1393 1394 1400 1404 1408 1405 1394 1386 1384 1383 1383 1383 1385 1388 1391 1394 1398 1401 1404 1407 1410 1413 1416 1419 1422 1425 1428 1431 1434 1438 1441 1445 1449 1453 1456 1460 1463
1399 1398 1394 1389 1385 1385 1386 1387 1389 1390 1387 1392 1388 1388 1382 1381 1380 1380 1381 1383 1386 1389 1392 1394 1398 1401 1404 1407 1410 1413 1416 1418 1421 1424 1427 1430 1434 1437 1441 1445 1448 1452 1455 1458
1397 1397 1394 1388 1382 1381 1381 1379 1380 1380 1380 1381 1381 1378 1373 1376 1378 1379 1380 1382 1383 1386 1388 1391 1394 1398 1401 1404 1407 1409 1412 1415 1418 1420 1423 1427 1430 1433 1437 1440 1444 1447 1450 1453
1395 1396 1395 1389 1383 1380 1376 1367 1369 1370 1368 1369 1369 1363 1369 1372 1373 1373 1375 1378 1380 1382 1385 1388 1391 1394 1397 1400 1403 1406 1409 1411 1414 1417 1420 1423 1426 1429 1433 1436 1440 1443 1445 1448
1392 1393 1393 1391 1385 1380 1362 1355 1358 1360 1358 1359 1358 1358 1362 1364 1365 1367 1370 1372 1375 1378 1380 1383 1387 1390 1393 1396 1399 1402 1405 1408 1410 1413 1416 1419 1422 1426 1429 1432 1435 1438 1441 1444
1383 1387 1389 1387 1381 1370 1359 1353 1352 1355 1351 1350 1352 1354 1357 1360 1362 1361 1363 1366 1369 1372 1376 1379 1382 1385 1389 1392 1395 1398 1401 1403 1406 1409 1412 1415 1419 1422 1425 1428 1431 1434 1437 1440
1376 1380 1385 1382 1377 1367 1349 1346 1344 1351 1350 1342 1346 1348 1353 1358 1363 1352 1354 1360 1363 1366 1369 1373 1376 1380 1383 1387 1390 1393 1396 1399 1402 1405 1409 1412 1415 1418 1421 1424 1427 1430 1433 1436
1373 1376 1377 1377 1373 1359 1345 1342 1343 1353 1342 1335 1337 1340 1345 1347 1344 1344 1350 1353 1355 1359 1363 1366 1370 1373 1377 1382 1385 1388 1392 1395 1399 1402 1406 1409 1412 1415 1418 1421 1424 1427 1429 1431
1365 1367 1369 1369 1368 1356 1340 1340 1341 1337 1333 1331 1331 1332 1335 1335 1336 1340 1343 1345 1348 1352 1356 1360 1363 1367 1372 1376 1380 1384 1388 1392 1395 1399 1402 1406 1409 1412 1415 1417 1420 1423 1425 1427
1359 1357 1355 1354 1347 1338 1335 1335 1332 1332 1331 1329 1328 1329 1329 1330 1331 1333 1335 1338 1341 1345 1350 1354 1358 1362 1367 1372 1376 1380 1384 1388 1392 1396 1399 1402 1406 1409 1411 1414 1416 1419 1421 1423
1354 1351 1352 1349 1341 1336 1332 1331 1329 1329 1328 1327 1326 1326 1326 1326 1325 1327 1329 1332 1335 1339 1344 1348 1353 1357 1362 1367 1372 1376 1380 1384 1388 1392 1396 1399 1402 1405 1408 1411 1413 1415 1417 1418
1351 1349 1347 1343 1337 1333 1327 1326 1326 1325 1325 1324 1323 1322 1322 1321 1321 1322 1324 1326 1330 1334 1339 1343 1348 1353 1358 1363 1368 1373 1377 1381 1385 1389 1393 1396 1399 1402 1405 1407 1410 1412 1413 1415
1342 1343 1341 1335 1331 1330 1324 1322 1323 1322 1320 1320 1319 1317 1317 1318 1317 1318 1320 1323 1326 1330 1335 1340 1345 1349 1354 1359 1364 1369 1374 1378 1382 1385 1389 1392 1396 1399 1401 1404 1406 1408 1411 1412